"Pseudo-MPEC" for C92CJM2

Created 2023 Apr 3 10:22:06 UT using Find_Orb

Click here for an explanation of pseudo-MPECs

 
 Astrometry: 
     C92CJM2*1C2023 04 01.36722415 19 44.828+35 55 34.03   ~419b 20.21GVNEOCPG96
     C92CJM2 1C2023 04 01.37244215 19 44.274+35 55 48.07   ~419b 20.54GVNEOCPG96
     C92CJM2 1C2023 04 01.37765315 19 43.698+35 56 02.00   ~419b 19.89GVNEOCPG96
     C92CJM2 1C2023 04 01.38285615 19 43.122+35 56 15.54   ~419b 20.43GVNEOCPG96
     C92CJM2 KC2023 04 01.49596715 19 30.896+36 01 08.26   ~41Cb 20.67GVNEOCPI52
     C92CJM2 KC2023 04 01.49913215 19 30.536+36 01 16.10   ~41Cb 20.86GVNEOCPI52
     C92CJM2 KC2023 04 01.50224115 19 30.238+36 01 24.31   ~41Cb 19.94GVNEOCPI52
     C92CJM2 KC2023 04 01.50528515 19 29.867+36 01 31.51   ~41Cb 20.40GVNEOCPI52
     C92CJM2 KC2023 04 02dYE7IwC,f1g'lAqGmLM5u^mfP!'vuw5905+Yf(?R9,3_'_au140`858
     C92CJM2 KC2023 04 02rWL#2.yb_i!o$,Nj4Hw(T0g6INe4OtAstrometryi,!lrckZHZ6=858
     C92CJM2 KC2023 04 02.34468215 18 15.782+36 37 07.86   ~428b 20.44GVNEOCPI52
     C92CJM2 KC2023 04 02.34616015 18 15.635+36 37 12.07   ~428b 20.34GVNEOCPI52
     C92CJM2 KC2023 04 02.34764115 18 15.484+36 37 15.89   ~428b 20.49GVNEOCPI52
     C92CJM2 KC2023 04 02.34911815 18 15.289+36 37 19.34   ~428b 20.55GVNEOCPI52
     C92CJM2  C2023 04 028vE)emmj4l:=W(Y,WHl2:u`ywti:3e9Predacted;avw=@2/4)@=654
     C92CJM2  C2023 04 02bteL,%j'?iX:2L'xewNMLCm8R(ALE]R?H$%(o`G8;KclickjvI/s654
     C92CJM2  C2023 04 02Q6FWY:Ifvj8ANk:herePI?X%1wu6gr_vEj2FF`Kfor26JWDoKt?D654
     C92CJM2 DC2023 04 03S7#3H.8gZQ=B*LDPfoef3/6explanation8^U\7F_$I9faG9w'5[695
     C92CJM2 DC2023 04 03-Y1M(M)nnpW*.;9j,9)0bBw$x=SYR5feF9mNB;B8s4sDA2'QuI(y695
     C92CJM2 DC2023 04 03%ZpX9G%gnr4v:Pr,IR`]K*X]1d24Fe9'[L@]sF$A9q3iislAZ)Fb695

Station data:
(654) Table Mountain Observatory, Wrightwood-PHMC  (N34.381820 W117.681590)
   US/California.  Observers P. Choi, N. Saini, C. Zhai, R. Trahan, M. Shao.
(695) Kitt Peak  (N31.958395 W111.594670)  US/Arizona. Measurer S. Deen.
   3.5-m f/1.75 reflector + CCD0.9-m f/7.5 reflector + CCD4.0-m
   Ritchey-Chrétien + CCD0.61-m f/3.5 Schmidt + CCD2.3-m f/9 reflector + CCD.
(858) Tebbutt Observatory, Edgewood  (N35.093869 W106.220000)  US/New Mexico.
    Observer F. B. Zoltowski. 0.16-m refractor + CCD0.51-m Schmidt-Cassegrain
   + CCD.
(G96) Mt. Lemmon Survey  (N32.442751 W110.788720)  US/Arizona.  Observer E.
   J. Christensen. 1.5-m reflector + 10K CCD.
(I52) Steward Observatory, Mt. Lemmon Station  (N32.442544 W110.788920)
   US/Arizona.  Observers T. A. Pruyne, B. M. Africano, E. J. Christensen, G.
   A. Farneth, D. C. Fuls, A. R. Gibbs, A. D. Grauer, H. Gröller, J. A.
   Johnson, R. A. Kowalski, S. M. Larson, G. J. Leonard, D. Rankin, R. L.
   Seaman, F. C. Shelly, K. W. Wierzchoś. 1.0-m prime focus + CCD.

Orbital elements:  C92CJM2
   Perihelion 2022 Dec 10.25669 +/- 0.299 TT =  6:09:37 (JD 2459923.75669)
Epoch 2023 Apr  3.0 TT = JDT 2460037.5   Earth MOID: 0.0291      AutoNEOCP
M  99.97557385 +/- 0.38             (J2000 ecliptic)
n   0.87895782 +/- 0.00131          Peri.  280.59270 +/- 0.21
a   1.07933773 +/- 0.00107          Node   158.20029 +/- 0.09
e   0.1559101 +/- 0.000961          Incl.   13.92784 +/- 0.08
P   1.12/409.57d           H 22.17  G  0.15   U  8.3
q 0.91105803 +/- 0.00046    Q 1.24761742 +/- 0.00222
From 20 observations 2023 Apr. 1-3; mean residual 0".19
Residuals in arcseconds: 
230401 G96  .13+  .07-    230401 I52  .41-  .41-    230402 654  .32+  .01+    
230401 G96  .21+  .12+    230402 858  .01+  .11+    230402 654  .05+  .30-    
230401 G96  .03+  .24+    230402 858  .01-  .38+    230402 654  .18+  .08-    
230401 G96  .14-  .01+    230402 I52  .25-  .29-    230403 695  .12-  .01-    
230401 I52  .02+  .07-    230402 I52  .06-  .15+    230403 695  .03-  .03+    
230401 I52  .24-  .25-    230402 I52  .09+  .19+    230403 695  .05+  .03-    
230401 I52  .16+  .09+    230402 I52  .30-  .12-    

Ephemerides (geocentric):
Date (UTC) HH   RA             Dec           delta  r     elong  mag " sig PA
---- --------  ------------   ------------  ------ ------ -----  --- --------
2023 04 03 10  15 16 32.432   +37 20 28.88  .20956 1.1336 125.2 20.8 .078  46
2023 04 03 11  15 16 28.382   +37 22 07.20  .20969 1.1337 125.2 20.8 .083  44
2023 04 03 12  15 16 24.325   +37 23 45.30  .20981 1.1338 125.2 20.9 .089  41
2023 04 03 13  15 16 20.263   +37 25 23.20  .20993 1.1339 125.2 20.9 .095  39
2023 04 03 14  15 16 16.195   +37 27 00.88  .21005 1.1340 125.2 20.9 .101  37
2023 04 03 15  15 16 12.121   +37 28 38.36  .21017 1.1340 125.2 20.9 .107  35
2023 04 03 16  15 16 08.041   +37 30 15.62  .21029 1.1341 125.2 20.9 .113  34
2023 04 03 17  15 16 03.954   +37 31 52.68  .21041 1.1342 125.2 20.9 .120  32
2023 04 03 18  15 15 59.862   +37 33 29.53  .21053 1.1343 125.2 20.9 .127  31
2023 04 03 19  15 15 55.764   +37 35 06.17  .21065 1.1344 125.2 20.9 .135  30
2023 04 03 20  15 15 51.659   +37 36 42.61  .21077 1.1345 125.2 20.9 .142  28
2023 04 03 21  15 15 47.549   +37 38 18.83  .21090 1.1346 125.2 20.9 .150  27
2023 04 03 22  15 15 43.433   +37 39 54.85  .21102 1.1347 125.2 20.9 .158  26
2023 04 03 23  15 15 39.311   +37 41 30.65  .21114 1.1348 125.2 20.9 .167  25
2023 04 04 00  15 15 35.182   +37 43 06.25  .21126 1.1349 125.2 20.9 .175  24
2023 04 04 01  15 15 31.048   +37 44 41.64  .21138 1.1350 125.2 20.9 .184  24
2023 04 04 02  15 15 26.909   +37 46 16.83  .21150 1.1351 125.2 20.9 .193  23
2023 04 04 03  15 15 22.763   +37 47 51.80  .21162 1.1352 125.2 20.9 .202  22
2023 04 04 04  15 15 18.611   +37 49 26.57  .21175 1.1353 125.2 20.9 .212  22
2023 04 04 05  15 15 14.454   +37 51 01.13  .21187 1.1354 125.2 20.9 .221  21
2023 04 04 06  15 15 10.290   +37 52 35.48  .21199 1.1355 125.2 20.9 .231  20
2023 04 04 07  15 15 06.121   +37 54 09.63  .21211 1.1356 125.2 20.9 .241  20
2023 04 04 08  15 15 01.946   +37 55 43.57  .21223 1.1357 125.2 20.9 .252  19
2023 04 04 09  15 14 57.765   +37 57 17.30  .21236 1.1358 125.2 20.9 .262  19
2023 04 04 10  15 14 53.579   +37 58 50.82  .21248 1.1359 125.2 20.9 .273  18
2023 04 04 11  15 14 49.387   +38 00 24.14  .21260 1.1360 125.2 20.9 .284  18
2023 04 04 12  15 14 45.189   +38 01 57.25  .21272 1.1361 125.2 20.9 .295  18
2023 04 04 13  15 14 40.985   +38 03 30.15  .21285 1.1362 125.2 20.9 .306  17
2023 04 04 14  15 14 36.775   +38 05 02.85  .21297 1.1363 125.2 20.9 .318  17
2023 04 04 15  15 14 32.560   +38 06 35.34  .21309 1.1364 125.2 20.9 .330  16
2023 04 04 16  15 14 28.339   +38 08 07.62  .21321 1.1365 125.2 20.9 .342  16
2023 04 04 17  15 14 24.113   +38 09 39.70  .21334 1.1366 125.2 20.9 .354  16
2023 04 04 18  15 14 19.880   +38 11 11.57  .21346 1.1367 125.2 20.9 .366  16
2023 04 04 19  15 14 15.642   +38 12 43.24  .21358 1.1367 125.2 20.9 .379  15
2023 04 04 20  15 14 11.399   +38 14 14.70  .21371 1.1368 125.2 20.9 .391  15
2023 04 04 21  15 14 07.150   +38 15 45.95  .21383 1.1369 125.2 20.9 .404  15
2023 04 04 22  15 14 02.895   +38 17 17.00  .21395 1.1370 125.2 20.9 .417  14
2023 04 04 23  15 13 58.635   +38 18 47.84  .21408 1.1371 125.2 20.9 .431  14
2023 04 05 00  15 13 54.369   +38 20 18.48  .21420 1.1372 125.2 20.9 .444  14
2023 04 05 01  15 13 50.097   +38 21 48.91  .21432 1.1373 125.2 20.9 .458  14
2023 04 05 02  15 13 45.820   +38 23 19.14  .21445 1.1374 125.2 20.9 .472  14
2023 04 05 03  15 13 41.538   +38 24 49.16  .21457 1.1375 125.2 20.9 .486  13
2023 04 05 04  15 13 37.250   +38 26 18.97  .21469 1.1376 125.2 20.9 .500  13
2023 04 05 05  15 13 32.956   +38 27 48.59  .21482 1.1377 125.2 20.9 .515  13
2023 04 05 06  15 13 28.657   +38 29 17.99  .21494 1.1378 125.2 20.9 .529  13
2023 04 05 07  15 13 24.353   +38 30 47.19  .21506 1.1379 125.2 20.9 .544  13
2023 04 05 08  15 13 20.043   +38 32 16.19  .21519 1.1380 125.2 20.9 .559  13
2023 04 05 09  15 13 15.727   +38 33 44.98  .21531 1.1381 125.2 20.9 .574  12